Tracking 30986 objects as of 9-Jul-2025
HD Live streaming from Space Station
objects crossing your sky now

CZ-6A DEB

Track CZ-6A DEB now!
10-day predictions


NORAD ID: 55191
Int'l Code: 2022-151VG
Perigee: 786.3 km
Apogee: 854.4 km
Inclination: 98.7 °
Period: 101.2 minutes
Semi major axis: 7191 km
RCS: Unknown
Launch date: November 11, 2022
Source: People's Republic of China (PRC)
Launch site: Taiyaun Space Center, China (TSC)

Note: This is SATELLITE DEBRIS
Your satellite tracking list
Your tracking list is empty




NASA's NSSDC Master Catalog

Two Line Element Set (TLE):
1 55191U 22151VG  25190.55141709  .00000422  00000-0  20233-3 0  9992
2 55191  98.7251 201.3772 0047343 252.6492 106.9505 14.23600463132672
Source of the keplerian elements: AFSPC